sat.trackr.live / text

‹ back to catalog

COSMOS 2477 (745)

NORAD 37868 · 2011-064B

PAYLOAD ACTIVE UNKNOWN

§ Identity

Operator
Country
CIS
Launch date
2011-11-04
Launch site
TYMSC
Launch vehicle
Mass (kg)
RCS (m²)
5.57

Purposes: nav

External: N2YO · Heavens-Above · Gunter

§ Orbital elements

Epoch: 2026-09-05T10:59:03.479424Z

Period
675.73 min
Inclination
65.3254°
Eccentricity
0.0019262
Mean motion
2.13102817 rev/d
Perigee alt
19,080.7 km
Apogee alt
19,179.0 km
Semi-major
25,508.0 km
B*
0.0000e+0
RAAN
70.2439°
Arg perigee
231.2188°
Mean anomaly
134.5975°
Rev number
11,547

§ Raw data

COSMOS 2477 (745)1 37868U 11064B   26248.45767916  .00000037  00000+0  00000+0 0  99992 37868  65.3254  70.2439 0019262 231.2188 134.5975  2.13102817115476

JSON: /api/v1/satellites/37868 · /tle

For live sub-satellite position, see the globe view (requires WebGL).

§ Visibility from observer

Set your observer location to see the next 7 days of passes ≥ 10°. The values pass through the URL so the page stays shareable.

No JS? Fill the form by hand. The geolocation button needs JavaScript.